This is the latest recevied weather packets stored in our database for station/object JS1SZZ-13. If no packets are shown the sender has not sent any weather packets the latest 10 day(s).
| Time | Temp. | Humidity | Pressure | Rain* | Wind** | Luminosity | Snow |
|---|---|---|---|---|---|---|---|
| 1777790100 | 19.44° C | 56% | 1005 hPa | 0 mm | - | - | - |
| 1777789200 | 19.44° C | 55% | 1005 hPa | 0 mm | - | - | - |
| 1777788300 | 20.56° C | 52% | 1005 hPa | 0 mm | - | - | - |
| 1777787399 | 20.56° C | 52% | 1005.5 hPa | 0 mm | - | - | - |
| 1777786500 | 20.56° C | 52% | 1005.6 hPa | 0 mm | - | - | - |
| 1777785600 | 20.56° C | 51% | 1005.5 hPa | 0 mm | - | - | - |
| 1777784701 | 20.56° C | 50% | 1005.8 hPa | 0 mm | - | - | - |
| 1777783799 | 21.67° C | 49% | 1006.2 hPa | 0 mm | - | - | - |
| 1777782901 | 20.56° C | 47% | 1006.6 hPa | 0 mm | - | - | - |
| 1777782000 | 21.11° C | 48% | 1007 hPa | 0 mm | - | - | - |
| 1777781099 | 21.67° C | 50% | 1007.5 hPa | 0 mm | - | - | - |
| 1777780201 | 21.67° C | 47% | 1007.5 hPa | 0 mm | - | - | - |
| 1777779300 | 21.11° C | 48% | 1007.9 hPa | 0 mm | - | - | - |
| 1777778399 | 21.11° C | 50% | 1008.3 hPa | 0 mm | - | - | - |
| 1777777500 | 21.11° C | 47% | 1008.6 hPa | 0 mm | - | - | - |
| 1777776600 | 21.11° C | 49% | 1008.7 hPa | 0 mm | - | - | - |
| 1777775700 | 20.56° C | 50% | 1009.2 hPa | 0 mm | - | - | - |
| 1777774799 | 20.56° C | 50% | 1009.3 hPa | 0 mm | - | - | - |
| 1777773901 | 19.44° C | 44% | 1009.8 hPa | 0 mm | - | - | - |
| 1777773000 | 19.44° C | 43% | 1010.3 hPa | 0 mm | - | - | - |
| 1777772099 | 19.44° C | 49% | 1010.2 hPa | 0 mm | - | - | - |
| 1777771200 | 18.89° C | 51% | 1010.4 hPa | 0 mm | - | - | - |
| 1777770300 | 18.89° C | 53% | 1010.7 hPa | 0 mm | - | - | - |
| 1777769400 | 18.33° C | 52% | 1010.6 hPa | 0 mm | - | - | - |
| 1777768500 | 17.78° C | 51% | 1010.8 hPa | 0 mm | - | - | - |
* Rain latest hour (hover to see other rain measurements)
** Current wind speed in m/s (hover to see current wind gust speed)